SCP
0 0 0 0 0 0 0 0 0 0 0 0 0 0 0 0 0 0 0 0 0 0 0 0 0 0 0 0 0 0 0 0 0 0 0 0 0 0 0 0 0 0 1
0 0 0 0 0 0 0 0 0 0 0 0 0 0 0 0 0 0 0 0 0 0 0 0 0 0 0 0 0 0 0 0 0 0 0 0 0 0 0 0 0 0 1
0 0 0 0 0 0 0 0 0 0 0 0 0 0 0 0 0 0 0 0 0 0 0 0 0 0 0 0 0 0 0 0 0 0 0 0 0 0 0 0 0 0 0
0 0 0 0 0 0 0 0 0 0 0 0 0 0 0 0 0 0 0 0 0 0 0 0 0 0 0 0 0 0 0 0 0 0 0 0 0 0 0 0 0 0 0
0 0 0 0 0 0 0 0 0 0 0 0 0 0 0 0 0 0 0 0 0 0 0 0 0 0 0 0 0 0 0 0 0 0 0 0 0 0 0 0 0 0 0
0 0 0 0 0 0 0 0 0 0 0 0 0 0 0 0 0 0 0 0 0 0 0 0 0 0 0 0 0 0 0 0 0 0 0 0 0 0 0 0 0 0 0
0 0 0 0 0 0 0 0 0 0 0 0 0 0 0 0 0 0 0 0 0 0 0 0 0 0 0 0 0 0 0 0 0 0 0 0 0 0 0 0 0 0 0
0 0 0 0 0 0 0 0 0 0 0 0 0 0 0 0 0 0 0 0 0 0 0 0 0 0 0 0 0 0 0 0 0 0 0 0 0 0 0 0 0 0 0
0 0 0 0 0 0 0 0 0 0 0 0 0 0 0 0 0 0 0 0 0 0 0 0 0 0 0 0 0 0 0 0 0 0 0 0 0 0 0 0 0 0 0
0 0 0 0 0 0 0 0 0 0 0 0 0 0 0 0 0 0 0 0 0 0 0 0 0 0 0 0 0 0 0 0 0 0 0 0 0 0 0 0 0 0 0
0 0 0 0 0 0 0 0 0 0 0 0 0 0 0 0 0 0 0 0 0 0 0 0 0 0 0 0 0 0 0 0 0 0 0 0 0 0 0 0 0 0 0
0 0 0 0 0 0 0 0 0 0 0 0 0 0 0 0 0 0 0 0 0 0 0 0 0 0 0 0 0 0 0 0 0 0 0 0 0 0 0 0 0 0 0
0 0 0 0 0 0 0 0 0 0 0 0 0 0 0 0 0 0 0 0 0 0 0 0 0 0 0 0 0 0 0 0 0 0 0 0 0 0 0 0 0 0 0
0 0 0 0 0 0 0 0 0 0 0 0 0 0 0 0 0 0 0 0 0 0 0 0 0 0 0 0 0 0 0 0 0 0 0 0 0 0 0 0 0 0 0
0 0 0 0 0 0 0 0 0 0 0 0 0 0 0 0 0 0 0 0 0 0 0 0 0 0 0 0 0 0 0 0 0 0 0 0 0 0 0 0 0 0 0
0 0 0 0 0 0 0 0 0 0 0 0 0 0 0 0 0 0 0 0 0 0 0 0 0 0 0 0 0 0 0 0 0 0 0 0 0 0 0 0 0 0 0
0 0 0 0 0 0 0 0 0 0 0 0 0 0 0 0 0 0 0 0 0 0 0 0 0 0 0 0 0 0 0 0 0 0 0 0 0 0 0 0 0 0 0
0 0 0 0 0 0 0 0 0 0 0 0 0 0 0 0 0 0 0 0 0 0 0 0 0 0 0 0 0 0 0 0 0 0 0 0 0 0 0 0 0 0 0
0 0 0 0 0 0 0 0 0 0 0 0 0 0 0 0 0 0 0 0 0 0 0 0 0 0 0 0 0 0 0 0 0 0 0 0 0 0 0 0 0 0 0
0 0 0 0 0 0 0 0 0 0 0 0 0 0 0 0 0 0 0 0 0 0 0 0 0 0 0 0 0 0 0 0 0 0 0 0 0 0 0 0 0 0 0
0 0 0 0 0 0 0 0 0 0 0 0 0 0 0 0 0 0 0 0 0 0 0 0 0 0 0 0 0 0 0 0 0 0 0 0 0 0 0 0 0 0 0
0 0 0 0 0 0 0 0 0 0 0 0 0 0 0 0 0 0 0 0 0 0 0 0 0 0 0 0 0 0 0 0 0 0 0 0 0 0 0 0 0 0 0
0 0 0 0 0 0 0 0 0 0 0 0 0 0 0 0 0 0 0 0 0 0 0 0 0 0 0 0 0 0 0 0 0 0 0 0 0 0 0 0 0 0 0
0 0 0 0 0 0 0 0 0 0 0 0 0 0 0 0 0 0 0 0 0 0 0 0 0 0 0 0 0 0 0 0 0 0 0 0 0 0 0 0 0 0 0
0 0 0 0 0 0 0 0 0 0 0 0 0 0 0 0 0 0 0 0 0 0 0 0 0 0 0 0 0 0 0 0 0 0 0 0 0 0 0 0 0 0 0
0 0 0 0 0 0 0 0 0 0 0 0 0 0 0 0 0 0 0 0 0 0 0 0 0 0 0 0 0 0 0 0 0 0 0 0 0 0 0 0 0 0 0
Wind_Speed
5 3 5 6 5 5 5 4 4 3 3 2 1 1 0 1 1 2 2 2 2 2 1 1 2 1 0 1 1 0 1 1 1 1 2 2 2 2 2 1 1 1 1
4 4 5 5 6 6 5 5 4 4 3 2 1 1 1 1 1 2 2 2 2 2 2 1 1 1 1 1 1 0 0 1 1 1 1 2 3 3 2 2 1 1 1
8 6 6 6 6 6 6 6 5 4 3 2 2 2 2 2 2 2 2 3 3 3 2 2 1 1 0 1 1 1 1 1 1 1 2 2 1 1 2 2 2 2 1
6 7 7 7 8 7 6 5 5 4 3 3 3 3 2 1 2 2 2 4 3 3 2 2 1 1 1 1 2 1 1 2 1 0 1 1 2 1 1 2 2 2 2
7 8 8 8 7 6 6 5 4 3 3 3 3 3 2 2 1 1 3 3 3 3 3 2 1 1 1 1 1 0 1 1 2 1 1 1 1 1 2 0 2 2 1
6 6 6 5 4 4 5 5 5 4 3 3 3 3 3 2 1 2 2 3 3 3 3 3 2 1 1 1 1 1 1 1 1 1 1 2 1 1 2 1 0 1 1
6 6 6 7 6 6 6 6 6 5 4 4 4 4 4 3 3 2 2 2 2 2 3 3 2 1 1 1 1 1 1 1 1 2 1 1 1 2 2 2 1 0 1
6 7 8 8 7 8 7 7 7 6 5 5 4 3 3 2 2 3 2 2 2 3 3 3 2 2 1 1 0 0 1 1 1 1 1 1 1 2 2 2 2 1 1
6 7 6 7 7 8 8 8 8 6 5 5 4 3 3 3 3 2 2 2 2 2 2 2 2 2 1 1 0 0 0 1 1 1 1 1 1 1 1 2 2 3 1
5 6 6 7 7 7 6 6 7 7 6 5 5 4 4 4 3 2 2 2 2 2 2 2 2 2 2 1 1 0 0 0 0 1 1 1 0 0 1 1 1 2 3
5 6 6 6 6 5 5 5 6 5 5 5 5 4 4 3 2 2 2 2 2 1 1 1 1 1 1 1 1 1 0 0 0 0 1 1 1 1 1 1 1 1 2
3 3 4 4 5 6 6 6 6 6 6 5 5 5 4 3 3 3 3 2 2 2 1 1 1 1 1 1 0 1 0 0 1 1 1 1 1 1 1 1 1 1 2
2 2 2 4 5 6 6 6 7 7 6 5 5 4 4 4 4 4 3 2 2 2 1 0 1 1 1 1 1 1 1 0 0 1 1 1 1 1 1 1 1 1 1
2 2 2 3 4 4 5 6 6 6 5 5 5 6 6 5 5 4 3 3 2 2 2 1 1 2 2 1 1 0 1 1 1 1 0 1 1 2 2 1 1 2 2
3 3 3 3 3 4 4 5 5 5 6 6 6 7 6 5 4 4 3 3 2 3 2 1 1 2 1 2 1 1 0 0 1 1 1 1 1 2 2 2 2 3 2
4 4 3 3 3 4 5 5 6 6 6 7 7 6 5 4 4 4 4 3 3 2 2 2 2 2 2 2 3 2 1 1 0 1 1 1 1 1 1 2 3 4 4
4 4 3 3 4 5 5 6 6 5 6 7 6 5 5 5 5 5 4 4 4 3 3 3 2 3 3 3 3 3 2 1 1 1 0 1 1 1 1 1 1 1 2
5 5 4 4 3 3 3 3 3 4 6 6 6 6 6 6 5 4 5 5 4 3 3 3 3 3 4 4 3 3 2 1 1 1 1 1 1 0 1 2 1 1 1
4 4 3 3 3 2 1 2 2 3 4 6 6 7 7 6 5 6 6 5 4 4 4 3 4 4 4 4 4 4 2 1 1 1 1 1 1 2 2 3 2 0 1
4 4 4 3 3 3 0 2 2 3 5 7 7 6 6 7 7 7 6 4 4 5 4 4 4 4 4 4 5 5 2 2 1 1 1 1 1 1 2 2 2 1 2
5 4 3 3 3 2 0 2 2 5 7 5 4 4 6 7 7 6 4 4 4 4 4 4 4 4 5 5 6 6 4 3 2 1 1 1 1 1 2 3 2 3 2
6 5 4 5 4 2 0 2 4 6 3 3 3 4 5 5 5 5 4 4 5 5 4 4 3 3 3 5 5 7 7 6 4 3 2 1 2 2 2 2 2 2 3
6 5 4 5 5 3 2 4 6 3 2 2 4 4 4 4 4 5 5 4 4 4 4 4 4 4 3 4 6 7 8 8 5 3 4 3 3 3 2 2 3 3 2
5 5 5 5 6 5 4 5 5 2 2 3 4 3 3 3 3 3 4 5 5 5 5 5 5 4 3 3 3 4 4 6 5 3 3 4 3 3 3 3 2 1 2
5 5 5 5 7 6 6 5 4 2 3 4 4 3 3 4 4 4 4 5 6 7 7 6 6 6 6 7 9 7 5 5 5 4 2 2 2 2 1 1 1 1 2
5 5 5 6 7 7 7 6 4 3 4 4 4 3 3 3 3 3 2 4 4 7 9 9 7 6 8 8 9 11 11 11 11 6 3 3 3 3 3 3 2 1 1
Wind_Direction
227 190 175 161 155 161 159 153 149 151 129 111 106 91 0 328 331 326 325 326 326 333 328 317 325 336 324 285 287 2 29 11 354 49 11 357 7 22 3 346 28 38 24
201 186 171 164 168 171 169 166 166 167 164 148 145 161 173 257 275 307 328 327 328 325 322 313 303 304 305 327 333 86 91 16 39 104 80 10 357 0 2 10 33 35 37
201 190 178 179 176 181 181 179 179 177 172 143 106 72 46 17 358 336 327 324 323 326 326 312 298 299 266 265 260 198 148 135 19 74 134 135 213 323 344 5 16 20 43
195 188 184 186 191 193 182 177 176 179 173 153 146 142 146 204 248 264 287 308 318 328 330 319 302 285 264 260 258 187 171 146 137 23 61 148 163 139 359 350 359 13 39
198 193 193 194 194 185 177 176 171 182 177 171 166 153 167 214 261 288 308 318 322 326 329 323 313 298 270 258 257 175 169 160 160 160 154 97 73 105 142 344 342 358 354
198 197 191 179 181 175 173 170 176 193 189 184 177 175 186 203 256 299 310 316 316 320 328 325 322 304 282 262 237 199 181 182 166 165 160 151 148 166 148 173 274 327 318
186 186 182 183 186 184 184 180 183 199 197 193 197 196 198 198 214 241 258 283 302 305 314 323 316 308 290 274 245 195 195 187 175 185 193 183 183 167 162 154 169 322 327
195 194 194 191 191 192 187 184 191 202 198 200 210 205 203 203 222 231 234 250 259 273 296 309 309 314 308 305 202 183 210 189 191 205 190 187 208 178 173 162 151 126 346
208 205 200 196 195 194 194 191 193 201 205 207 206 206 208 210 225 238 235 255 270 281 301 315 327 329 340 6 89 87 266 189 192 207 198 196 218 179 180 166 159 153 159
222 215 208 204 203 201 198 191 194 201 205 202 203 206 211 215 220 220 242 260 276 292 316 326 332 336 345 7 50 2 343 117 209 183 168 187 209 151 166 170 169 165 161
232 222 214 205 198 192 190 194 201 204 204 203 204 207 214 213 208 216 238 248 265 285 296 305 321 328 333 353 16 345 38 78 341 166 176 205 172 151 161 154 154 165 158
243 231 215 196 192 195 195 198 202 206 209 203 200 207 209 200 207 227 241 238 246 262 271 292 318 318 330 344 324 316 351 208 270 269 189 219 169 161 166 155 166 170 171
276 245 210 201 204 205 203 204 206 209 205 194 198 206 208 205 215 229 233 227 231 251 268 248 272 296 299 292 275 271 288 279 268 276 223 226 162 174 187 173 169 170 154
296 266 240 229 222 215 208 207 213 207 197 190 195 205 212 212 217 224 223 222 220 225 239 235 246 271 279 269 260 259 294 302 316 318 274 224 187 199 193 180 177 154 132
332 295 265 248 231 226 222 213 211 202 192 190 201 214 216 212 211 217 220 218 216 221 225 228 263 284 273 256 227 213 209 251 340 347 329 288 208 201 193 180 174 155 142
328 319 302 275 247 231 223 217 215 203 186 196 211 213 207 206 210 215 213 211 217 222 210 220 238 263 270 270 207 180 170 165 185 324 326 320 335 289 226 180 166 165 163
323 319 299 273 256 240 219 215 215 196 190 203 211 206 202 207 214 212 204 210 215 212 214 225 227 246 265 259 215 188 164 168 192 225 307 339 353 19 82 71 88 143 184
331 323 314 299 283 263 232 217 187 186 199 209 213 208 202 210 211 205 211 215 208 207 214 222 223 236 257 242 208 175 152 148 175 208 215 222 296 301 133 120 90 55 339
303 299 294 287 296 297 234 166 172 183 199 215 219 213 204 207 205 210 217 213 202 208 210 212 214 223 251 234 202 172 147 153 213 250 230 210 234 263 148 129 131 36 322
326 329 332 336 332 318 221 160 190 196 219 226 225 214 203 203 209 215 215 207 201 209 206 214 215 215 231 231 209 177 158 171 208 256 281 240 210 232 166 154 155 184 264
335 342 351 342 318 321 170 203 218 230 236 233 222 211 207 210 212 210 206 199 198 200 204 214 222 219 226 230 215 188 172 182 185 198 233 253 210 170 158 157 170 200 192
347 348 346 332 328 332 250 247 252 255 251 224 217 216 214 216 209 200 202 194 191 196 207 213 228 229 227 222 220 205 192 179 174 192 205 207 157 140 133 146 169 157 133
335 333 328 325 327 321 282 257 267 274 251 230 229 225 214 211 199 194 197 193 191 199 209 207 220 232 227 223 216 205 192 181 176 185 175 165 149 131 113 94 114 119 115
328 326 326 322 317 312 298 272 279 260 228 237 242 230 213 213 207 201 198 198 201 205 209 211 217 222 221 217 207 197 189 180 176 172 154 141 125 113 101 84 76 94 124
316 320 315 309 307 309 301 296 293 260 242 243 241 232 220 213 212 212 211 210 215 208 207 215 208 203 219 222 201 186 188 185 179 151 125 120 124 127 112 90 80 84 99
312 317 314 310 307 307 303 298 289 261 244 250 245 233 222 217 211 210 242 245 233 230 220 214 208 219 218 208 198 195 192 184 168 148 157 175 176 178 179 169 156 138 142